SQ9PDE-13 Weather Reports


time (UTC)temp
C
wind
direction
speed
KPH
gust
KPH
rain 1hr
cm
rain 24hr
cm
rain mn
cm
humidity
%
barometer
mb
20260503181044 19 0.0 0.0 0.00 0.00 0.00 36 1013.7
20260503180544 20 0.0 0.0 0.00 0.00 0.00 36 1013.6
20260503180043 20 0.0 0.0 0.00 0.00 0.00 36 1013.5
20260503175542 20 0.0 0.0 0.00 0.00 0.00 35 1013.4
20260503175042 20 0.0 0.0 0.00 0.00 0.00 35 1013.3
20260503174548 21 0.0 0.0 0.00 0.00 0.00 34 1013.1
20260503174541 21 0.0 0.0 0.00 0.00 0.00 35 1013.2
20260503174041 21 0.0 0.0 0.00 0.00 0.00 35 1013.2
20260503173540 21 0.0 0.0 0.00 0.00 0.00 35 1013.2
20260503173040 21 0.0 0.0 0.00 0.00 0.00 34 1013.1
20260503172539 21 0.0 0.0 0.00 0.00 0.00 34 1013.1
20260503172039 22 0.0 0.0 0.00 0.00 0.00 34 1013.1
20260503171538 22 0.0 0.0 0.00 0.00 0.00 34 1013.1
20260503171038 22 0.0 0.0 0.00 0.00 0.00 34 1013.1
20260503170537 22 0.0 0.0 0.00 0.00 0.00 33 1013.0
20260503150525 23 0.0 0.0 0.00 0.00 0.00 31 1013.4
20260503131013 24 0.0 0.0 0.00 0.00 0.00 32 1014.7
20260503130512 24 0.0 0.0 0.00 0.00 0.00 33 1014.7
20260503110500 23 0.0 0.0 0.00 0.00 0.00 35 1016.0
20260503090447 24 0.0 0.0 0.00 0.00 0.00 41 1018.0
20260503081442 24 0.0 0.0 0.00 0.00 0.00 44 1018.7
20260503080941 25 0.0 0.0 0.00 0.00 0.00 44 1018.5
20260503080441 24 0.0 0.0 0.00 0.00 0.00 45 1018.6
20260503072937 23 0.0 0.0 0.00 0.00 0.00 47 1019.0
20260503072437 23 0.0 0.0 0.00 0.00 0.00 49 1019.0
20260503071936 23 0.0 0.0 0.00 0.00 0.00 48 1019.0
20260503071436 23 0.0 0.0 0.00 0.00 0.00 48 1019.0
20260503070935 21 0.0 0.0 0.00 0.00 0.00 50 1019.2
20260503070435 21 0.0 0.0 0.00 0.00 0.00 50 1019.4
20260503054927 16 0.0 0.0 0.00 0.00 0.00 60 1019.7
20260503054426 15 0.0 0.0 0.00 0.00 0.00 56 1019.0
20260503053926 14 0.0 0.0 0.00 0.00 0.00 53 1019.1
20260503053425 13 0.0 0.0 0.00 0.00 0.00 54 1019.2
20260503052924 13 0.0 0.0 0.00 0.00 0.00 54 1019.2
20260503052424 13 0.0 0.0 0.00 0.00 0.00 54 1019.2
20260503051924 13 0.0 0.0 0.00 0.00 0.00 54 1019.2
20260503051423 13 0.0 0.0 0.00 0.00 0.00 54 1019.2
20260503050922 12 0.0 0.0 0.00 0.00 0.00 55 1019.3
20260503050422 12 0.0 0.0 0.00 0.00 0.00 58 1020.2
20260503045921 13 0.0 0.0 0.00 0.00 0.00 64 1020.6
20260503045421 13 0.0 0.0 0.00 0.00 0.00 66 1020.6
20260503044920 13 0.0 0.0 0.00 0.00 0.00 66 1020.5
20260503044420 12 0.0 0.0 0.00 0.00 0.00 66 1020.3
20260503043919 12 0.0 0.0 0.00 0.00 0.00 66 1020.0
20260503043419 11 0.0 0.0 0.00 0.00 0.00 65 1020.1
20260503042918 11 0.0 0.0 0.00 0.00 0.00 66 1020.2
20260503042418 11 0.0 0.0 0.00 0.00 0.00 67 1020.1
20260503041917 10 0.0 0.0 0.00 0.00 0.00 67 1020.0
20260503041417 10 0.0 0.0 0.00 0.00 0.00 68 1020.1
20260503040916 10 0.0 0.0 0.00 0.00 0.00 69 1020.2
20260503040416 9 0.0 0.0 0.00 0.00 0.00 72 1020.0
20260503035915 8 0.0 0.0 0.00 0.00 0.00 66 1019.7
20260503035414 8 0.0 0.0 0.00 0.00 0.00 66 1019.7
20260503034914 8 0.0 0.0 0.00 0.00 0.00 67 1019.8
20260503034413 8 0.0 0.0 0.00 0.00 0.00 67 1019.8
20260503033913 8 0.0 0.0 0.00 0.00 0.00 66 1019.7
20260503033412 8 0.0 0.0 0.00 0.00 0.00 66 1019.7
20260503032912 8 0.0 0.0 0.00 0.00 0.00 70 1019.8
20260503032411 8 0.0 0.0 0.00 0.00 0.00 68 1019.9
20260503031911 8 0.0 0.0 0.00 0.00 0.00 67 1019.8
20260503031410 8 0.0 0.0 0.00 0.00 0.00 66 1019.6
20260503030910 8 0.0 0.0 0.00 0.00 0.00 66 1019.8
20260503030409 8 0.0 0.0 0.00 0.00 0.00 65 1019.8
20260503025909 8 0.0 0.0 0.00 0.00 0.00 66 1019.8
20260503025408 7 0.0 0.0 0.00 0.00 0.00 67 1019.9
20260503024908 8 0.0 0.0 0.00 0.00 0.00 67 1019.9
20260503024407 7 0.0 0.0 0.00 0.00 0.00 67 1019.9
20260503023907 7 0.0 0.0 0.00 0.00 0.00 68 1019.9
20260503023406 7 0.0 0.0 0.00 0.00 0.00 67 1019.9
20260503022906 8 0.0 0.0 0.00 0.00 0.00 65 1019.9
20260503022405 8 0.0 0.0 0.00 0.00 0.00 62 1019.8
20260503021905 8 0.0 0.0 0.00 0.00 0.00 63 1019.8
20260503021404 9 0.0 0.0 0.00 0.00 0.00 60 1019.7
20260503020903 9 0.0 0.0 0.00 0.00 0.00 60 1019.6
20260503020403 8 0.0 0.0 0.00 0.00 0.00 61 1019.8
20260503015902 9 0.0 0.0 0.00 0.00 0.00 60 1019.7
20260503015402 9 0.0 0.0 0.00 0.00 0.00 60 1019.8
20260503014901 9 0.0 0.0 0.00 0.00 0.00 60 1019.8
20260503014401 10 0.0 0.0 0.00 0.00 0.00 59 1019.8
20260503013900 10 0.0 0.0 0.00 0.00 0.00 58 1019.6
20260503013400 10 0.0 0.0 0.00 0.00 0.00 57 1019.6
20260503012859 10 0.0 0.0 0.00 0.00 0.00 57 1019.6
20260503012359 10 0.0 0.0 0.00 0.00 0.00 56 1019.5
20260503011858 10 0.0 0.0 0.00 0.00 0.00 56 1019.5
20260503011358 10 0.0 0.0 0.00 0.00 0.00 56 1019.5
20260503010857 10 0.0 0.0 0.00 0.00 0.00 56 1019.6
20260503010357 10 0.0 0.0 0.00 0.00 0.00 56 1019.6
20260503005857 11 0.0 0.0 0.00 0.00 0.00 54 1019.5
20260503005356 11 0.0 0.0 0.00 0.00 0.00 54 1019.6
20260503004855 11 0.0 0.0 0.00 0.00 0.00 55 1019.6
20260503004355 11 0.0 0.0 0.00 0.00 0.00 55 1019.6
20260503003854 11 0.0 0.0 0.00 0.00 0.00 55 1019.6
20260503003353 11 0.0 0.0 0.00 0.00 0.00 56 1019.7
20260503002853 10 0.0 0.0 0.00 0.00 0.00 57 1019.8
20260503002352 10 0.0 0.0 0.00 0.00 0.00 57 1019.8
20260503001852 10 0.0 0.0 0.00 0.00 0.00 57 1019.7
20260503001351 10 0.0 0.0 0.00 0.00 0.00 57 1019.9
20260503000851 10 0.0 0.0 0.00 0.00 0.00 57 1019.6
20260503000350 10 0.0 0.0 0.00 0.00 0.00 57 1019.7
20260502235850 10 0.0 0.0 0.00 0.00 0.00 58 1019.7
20260502235349 10 0.0 0.0 0.00 0.00 0.00 58 1019.8
20260502234849 11 0.0 0.0 0.00 0.00 0.00 58 1019.7
20260502234348 10 0.0 0.0 0.00 0.00 0.00 62 1020.0
20260502233848 10 0.0 0.0 0.00 0.00 0.00 60 1019.9
20260502233347 10 0.0 0.0 0.00 0.00 0.00 59 1020.0
20260502232847 11 0.0 0.0 0.00 0.00 0.00 57 1020.0
20260502232346 11 0.0 0.0 0.00 0.00 0.00 57 1020.0
20260502231846 11 0.0 0.0 0.00 0.00 0.00 58 1020.0
20260502231345 10 0.0 0.0 0.00 0.00 0.00 62 1020.3
20260502230845 10 0.0 0.0 0.00 0.00 0.00 60 1020.3
20260502230344 10 0.0 0.0 0.00 0.00 0.00 59 1020.2
20260502225844 9 0.0 0.0 0.00 0.00 0.00 65 1020.5
20260502225343 9 0.0 0.0 0.00 0.00 0.00 64 1020.5
20260502224842 10 0.0 0.0 0.00 0.00 0.00 62 1020.4
20260502224342 10 0.0 0.0 0.00 0.00 0.00 63 1020.5
20260502223841 10 0.0 0.0 0.00 0.00 0.00 63 1020.5
20260502223341 10 0.0 0.0 0.00 0.00 0.00 61 1020.4
20260502222840 10 0.0 0.0 0.00 0.00 0.00 61 1020.5
20260502222340 10 0.0 0.0 0.00 0.00 0.00 62 1020.5
20260502221839 11 0.0 0.0 0.00 0.00 0.00 59 1020.4
20260502221339 11 0.0 0.0 0.00 0.00 0.00 61 1020.4
20260502220838 10 0.0 0.0 0.00 0.00 0.00 61 1020.6
20260502220338 10 0.0 0.0 0.00 0.00 0.00 61 1020.6
20260502215837 11 0.0 0.0 0.00 0.00 0.00 61 1020.5
20260502215337 10 0.0 0.0 0.00 0.00 0.00 63 1020.7
20260502214836 10 0.0 0.0 0.00 0.00 0.00 62 1020.7
20260502214336 10 0.0 0.0 0.00 0.00 0.00 62 1020.7
20260502213835 10 0.0 0.0 0.00 0.00 0.00 61 1020.7
20260502213335 11 0.0 0.0 0.00 0.00 0.00 60 1020.6
20260502212834 11 0.0 0.0 0.00 0.00 0.00 59 1020.6
20260502212333 11 0.0 0.0 0.00 0.00 0.00 60 1020.6
20260502211833 11 0.0 0.0 0.00 0.00 0.00 59 1020.7
20260502211332 11 0.0 0.0 0.00 0.00 0.00 58 1020.5
20260502210936 11 0.0 0.0 0.00 0.00 0.00 57 102.0
20260502210832 11 0.0 0.0 0.00 0.00 0.00 57 1020.5
20260502210331 11 0.0 0.0 0.00 0.00 0.00 58 1020.6
20260502205831 12 0.0 0.0 0.00 0.00 0.00 57 1020.6
20260502205330 12 0.0 0.0 0.00 0.00 0.00 55 1020.6
20260502204830 12 0.0 0.0 0.00 0.00 0.00 55 1020.6
20260502204329 12 0.0 0.0 0.00 0.00 0.00 54 1020.6
20260502203829 12 0.0 0.0 0.00 0.00 0.00 54 1020.7
20260502203328 12 0.0 0.0 0.00 0.00 0.00 53 1020.6
20260502202828 13 0.0 0.0 0.00 0.00 0.00 53 1020.5
20260502202327 13 0.0 0.0 0.00 0.00 0.00 53 1020.6
20260502201827 13 0.0 0.0 0.00 0.00 0.00 54 1020.7
20260502201326 13 0.0 0.0 0.00 0.00 0.00 54 1020.7
20260502200826 13 0.0 0.0 0.00 0.00 0.00 53 1020.7
20260502200325 13 0.0 0.0 0.00 0.00 0.00 53 1020.8
20260502195825 13 0.0 0.0 0.00 0.00 0.00 52 1020.8
20260502195324 13 0.0 0.0 0.00 0.00 0.00 52 1020.7
20260502194824 13 0.0 0.0 0.00 0.00 0.00 52 1020.7
20260502194323 13 0.0 0.0 0.00 0.00 0.00 52 1020.8
20260502193822 13 0.0 0.0 0.00 0.00 0.00 53 1020.7
20260502193322 13 0.0 0.0 0.00 0.00 0.00 51 1020.6
20260502192821 14 0.0 0.0 0.00 0.00 0.00 50 1020.5
20260502192321 14 0.0 0.0 0.00 0.00 0.00 49 1020.5
20260502191820 15 0.0 0.0 0.00 0.00 0.00 49 1020.4
20260502191320 15 0.0 0.0 0.00 0.00 0.00 49 1020.5
20260502190819 15 0.0 0.0 0.00 0.00 0.00 49 1020.4
20260502190319 15 0.0 0.0 0.00 0.00 0.00 49 1020.4
20260502185818 15 0.0 0.0 0.00 0.00 0.00 48 1020.2
20260502185318 15 0.0 0.0 0.00 0.00 0.00 47 1020.2
20260502184817 15 0.0 0.0 0.00 0.00 0.00 46 1020.1
20260502184317 16 0.0 0.0 0.00 0.00 0.00 46 1020.1
20260502183816 16 0.0 0.0 0.00 0.00 0.00 46 1020.0
20260502183316 16 0.0 0.0 0.00 0.00 0.00 45 1020.0
20260502182815 16 0.0 0.0 0.00 0.00 0.00 45 1019.9
20260502182315 16 0.0 0.0 0.00 0.00 0.00 44 1019.9
20260502181814 16 0.0 0.0 0.00 0.00 0.00 45 1020.0